Wind_Speed
15 15 12 10 12 11 9 6 3 2 5 8 12 16 19 16 16 17 17 18 16 16 17 17 15 16 16 16 14 11 9 11 13 13 13 5 7 7 9 14 15 17 20
17 14 12 12 7 6 6 4 5 6 9 12 15 19 19 17 17 17 18 18 18 18 18 18 19 18 18 18 17 17 14 11 12 13 13 9 7 10 16 18 16 15 15
16 11 12 10 7 5 5 7 9 11 12 15 17 20 21 21 21 19 18 17 18 19 21 24 26 26 23 20 19 20 17 15 12 13 13 11 10 11 12 11 13 14 16
21 18 17 12 10 8 9 10 11 14 16 18 20 22 23 22 22 20 17 18 21 25 26 28 27 22 20 18 19 19 18 19 18 14 11 12 10 4 14 15 7 10 12
28 26 21 17 15 13 14 13 14 16 18 20 23 25 25 24 24 21 21 22 23 26 30 24 18 15 13 13 14 14 15 18 17 18 19 15 12 10 10 14 9 3 7
33 29 27 24 19 17 16 14 16 18 19 23 26 28 27 28 28 23 20 20 22 25 28 23 14 12 10 9 11 12 12 14 15 14 15 15 11 10 14 13 11 10 13
33 32 28 21 17 14 14 15 17 18 21 25 27 29 30 30 28 23 21 24 27 23 22 17 17 12 12 12 11 11 13 13 13 13 14 16 14 9 12 16 14 11 14
33 30 24 22 18 16 15 14 14 17 22 24 27 29 31 30 28 26 26 25 25 18 15 16 16 13 14 15 14 13 12 12 14 15 17 15 18 14 11 12 12 15 15
31 30 25 15 15 12 12 14 17 20 22 25 26 27 29 30 25 18 17 17 17 18 15 15 16 16 15 15 15 14 13 15 17 19 19 18 20 21 21 19 17 16 21
17 12 9 11 11 12 15 18 19 20 21 22 23 21 19 18 16 15 16 15 16 16 16 16 18 20 17 17 18 18 18 19 21 22 23 25 25 24 24 24 23 22 21
5 2 3 9 12 14 15 15 17 17 18 22 21 17 14 14 16 16 16 20 18 19 20 21 20 19 17 21 21 20 22 26 27 28 27 26 24 26 30 28 22 17 24
3 4 8 12 14 13 15 15 17 19 21 17 17 17 16 16 17 18 18 20 20 22 22 22 21 21 21 23 26 26 24 24 25 24 22 22 20 19 20 26 28 24 19
5 8 11 13 15 16 18 18 18 16 18 18 20 21 25 24 23 22 23 23 24 25 26 27 27 27 27 26 27 26 25 22 20 20 21 19 16 13 14 18 25 27 21
16 15 16 15 14 14 15 15 16 17 18 19 22 24 26 28 27 27 26 26 29 30 30 30 30 33 35 35 33 31 25 19 18 18 19 17 15 13 13 14 18 25 22
13 13 12 13 14 16 17 17 17 17 20 23 25 27 28 27 25 24 25 27 28 30 31 34 32 32 32 31 29 28 25 22 17 15 16 17 16 13 10 11 11 11 14
13 11 13 16 18 18 20 21 18 17 16 17 18 19 22 25 26 28 29 29 31 33 34 33 33 32 32 31 29 28 26 24 20 18 16 15 14 13 10 7 11 10 10
12 14 16 19 21 20 22 21 24 23 21 21 20 21 23 28 31 32 32 30 28 27 28 30 30 29 29 28 25 22 21 17 16 18 19 18 13 10 9 7 7 13 14
12 14 18 19 22 22 22 20 21 23 29 30 25 22 22 23 24 25 25 27 27 24 23 24 25 23 21 19 19 17 15 14 13 13 16 18 17 15 12 9 9 8 10
17 18 20 21 22 24 24 25 26 28 29 29 29 26 24 23 23 22 20 19 19 19 20 20 20 20 20 19 17 16 14 13 12 12 12 15 17 16 14 12 10 12 10
18 19 23 26 25 26 26 27 28 29 29 29 28 27 27 26 25 23 20 18 18 19 18 18 18 17 19 18 16 16 16 14 13 12 12 13 14 14 15 14 12 13 15
20 23 27 29 29 26 26 26 28 30 29 29 28 26 24 24 25 23 22 20 20 20 19 19 17 16 16 17 18 16 14 14 15 14 13 12 14 14 13 14 14 13 13
21 24 27 29 29 27 27 27 28 30 29 29 28 26 25 25 25 24 23 20 19 18 18 16 16 16 17 15 16 17 18 19 17 16 15 13 13 13 13 13 14 15 14
22 24 26 28 29 29 28 29 28 28 29 29 28 27 27 27 26 25 23 21 19 18 17 17 18 17 17 17 15 17 19 20 19 16 15 13 12 12 14 14 14 16 16
27 28 26 27 29 29 29 30 31 31 31 31 30 28 27 27 26 25 23 21 20 18 17 18 17 21 19 16 16 16 18 18 18 19 17 14 13 13 13 16 16 16 16
28 30 27 27 29 30 30 31 31 32 33 33 31 28 27 27 26 25 23 22 19 18 18 18 17 16 19 17 15 15 14 15 17 19 19 19 16 15 14 16 16 15 13
29 29 28 26 27 29 31 31 32 33 34 35 33 30 28 28 27 26 24 23 21 18 17 15 14 13 13 16 14 13 13 14 16 16 19 18 17 16 15 13 13 14 10
Wind_Direction
176 177 171 192 167 163 172 177 206 288 316 324 334 337 334 331 324 321 317 314 317 312 303 304 303 293 293 289 290 302 321 334 339 332 322 267 213 196 234 249 260 240 238
168 169 166 189 195 206 207 224 261 293 309 320 330 335 333 329 326 322 315 313 314 313 310 306 306 300 289 279 283 283 289 312 323 323 331 335 252 209 225 229 242 234 245
183 183 200 208 210 231 260 268 285 302 305 313 323 331 329 326 325 322 317 312 309 306 304 305 305 305 296 283 273 269 277 286 298 314 315 315 322 236 256 262 212 207 241
191 195 205 218 229 256 264 280 297 295 300 308 318 326 325 323 321 315 306 299 299 302 304 308 309 306 299 291 280 275 277 273 274 284 302 315 316 316 245 255 238 235 222
198 201 201 217 221 236 253 271 287 292 298 306 314 318 320 320 320 310 299 296 298 301 306 315 310 306 310 306 293 289 279 279 280 275 280 286 299 288 333 274 251 214 247
199 205 205 207 216 228 245 264 282 289 297 305 308 312 313 314 316 308 300 298 296 301 309 315 310 299 305 301 273 273 277 294 293 291 278 276 275 285 287 317 296 248 260
202 200 197 203 209 221 235 254 271 284 295 299 301 304 307 311 313 303 297 296 299 304 305 314 309 308 309 308 302 295 278 273 283 278 269 269 268 251 263 280 308 290 262
185 178 182 197 207 221 231 249 270 286 293 294 298 300 302 304 306 299 297 294 296 309 314 317 309 308 311 311 305 296 292 289 286 272 268 272 275 260 256 260 265 291 294
156 163 167 185 211 224 251 273 287 294 294 296 296 297 300 302 304 309 315 311 306 305 302 307 304 299 295 296 298 298 282 279 280 278 281 283 268 252 260 259 248 274 288
167 151 192 216 253 272 285 296 300 301 304 305 304 303 297 311 308 315 310 304 305 302 300 298 305 295 286 281 285 289 284 282 280 277 265 261 265 265 252 252 256 261 274
100 87 287 280 286 293 303 309 314 315 321 324 321 321 315 309 306 304 300 300 299 299 296 299 303 303 292 286 282 281 287 288 281 281 282 277 266 259 254 252 243 252 249
320 290 300 306 312 314 313 317 317 318 318 318 318 316 311 308 304 300 298 295 294 294 295 298 298 295 292 291 284 279 282 285 286 285 284 288 288 268 252 236 232 237 235
358 1 349 338 329 318 310 312 311 321 324 315 313 311 309 306 301 297 288 289 292 292 290 289 289 290 290 291 291 286 290 288 284 280 282 289 302 288 254 232 222 231 234
9 356 343 339 337 340 338 336 329 323 318 312 309 307 305 303 302 301 296 292 290 288 292 294 291 281 282 285 289 293 291 286 275 278 283 292 303 302 274 243 230 226 237
12 357 344 336 330 326 323 319 316 310 309 307 304 303 303 304 303 301 296 288 285 285 293 291 288 288 290 292 294 292 294 290 269 263 275 285 295 307 293 247 229 230 236
359 352 350 339 339 345 346 341 337 326 317 310 303 299 297 295 293 290 287 284 280 283 286 281 283 286 289 293 295 296 294 289 279 256 259 271 283 294 311 283 238 232 223
5 354 353 357 355 351 351 347 339 339 336 332 322 309 298 290 289 287 283 281 279 279 277 280 282 283 285 288 291 290 288 285 284 259 254 251 265 282 289 290 258 233 224
10 8 6 1 359 360 356 351 346 341 337 336 334 326 318 310 305 301 298 289 285 282 281 281 282 283 281 281 286 287 282 276 271 262 260 249 252 261 270 263 264 235 230
28 20 15 6 4 0 356 357 355 352 348 343 341 341 335 327 321 319 317 309 302 287 284 284 282 280 278 278 280 277 270 271 267 263 259 246 247 250 252 254 253 243 230
28 20 12 5 1 359 357 357 354 350 349 347 344 340 339 334 331 327 324 318 307 296 285 293 285 282 276 274 274 276 263 258 261 255 260 258 251 252 252 256 248 241 229
22 17 13 7 1 358 357 356 355 353 350 347 344 342 341 338 333 329 322 315 309 306 301 278 281 283 275 264 266 266 262 257 255 259 254 254 253 252 248 246 242 240 228
12 10 7 4 0 359 358 357 355 353 351 348 345 345 345 343 339 333 328 319 315 303 302 292 274 277 276 270 254 253 252 251 250 253 251 249 248 243 245 238 239 233 223
9 3 1 1 1 360 359 1 359 355 354 352 349 346 345 343 340 336 331 325 318 312 305 285 269 266 267 264 260 253 249 248 248 239 242 243 231 241 239 235 234 228 219
10 5 360 358 360 360 360 360 360 360 357 355 352 348 345 343 341 339 335 330 324 318 315 307 290 263 251 261 258 252 245 243 242 227 223 227 228 234 236 236 241 218 216
2 1 359 357 358 359 359 359 360 360 359 357 354 350 346 344 344 343 340 336 329 324 324 318 306 278 248 241 250 252 246 240 230 228 220 231 225 237 235 234 238 213 207
355 356 357 356 357 359 0 359 359 360 359 357 355 353 349 347 346 345 342 342 337 329 330 325 320 299 253 225 232 239 242 234 226 213 221 223 216 233 231 224 213 199 199
Height
1526 1528 1528 1534 1533 1533 1535 1535 1536 1536 1537 1537 1536 1534 1532 1530 1527 1525 1522 1520 1519 1518 1517 1516 1514 1512 1511 1510 1509 1508 1506 1504 1501 1498 1494 1490 1489 1490 1493 1496 1493 1492 1493
1523 1527 1528 1534 1532 1533 1533 1533 1535 1534 1535 1534 1532 1531 1529 1527 1525 1522 1519 1517 1516 1514 1513 1512 1510 1508 1507 1506 1505 1505 1504 1503 1500 1498 1494 1492 1490 1488 1489 1489 1492 1491 1491
1521 1523 1527 1528 1529 1530 1531 1532 1532 1532 1533 1531 1530 1528 1526 1524 1522 1520 1517 1515 1513 1511 1509 1507 1505 1503 1501 1500 1500 1500 1500 1499 1499 1497 1494 1492 1489 1485 1487 1486 1484 1488 1490
1511 1516 1522 1524 1524 1526 1529 1529 1528 1529 1529 1528 1527 1526 1523 1520 1518 1516 1514 1512 1510 1507 1504 1502 1500 1497 1495 1494 1494 1494 1495 1495 1495 1495 1494 1491 1488 1484 1485 1485 1480 1482 1486
1509 1510 1514 1518 1519 1522 1528 1525 1525 1525 1524 1524 1523 1521 1520 1516 1514 1512 1510 1508 1506 1502 1500 1497 1494 1492 1492 1490 1489 1488 1489 1490 1490 1490 1490 1489 1488 1483 1481 1480 1479 1476 1483
1506 1511 1514 1515 1516 1518 1521 1520 1520 1520 1519 1519 1518 1517 1515 1512 1509 1507 1505 1502 1500 1498 1495 1492 1490 1489 1488 1487 1486 1486 1485 1485 1486 1485 1485 1485 1483 1483 1483 1479 1475 1475 1480
1505 1510 1513 1517 1516 1518 1516 1515 1515 1515 1516 1514 1514 1512 1510 1507 1505 1502 1500 1497 1494 1492 1490 1488 1486 1486 1484 1483 1483 1482 1482 1482 1482 1482 1481 1481 1480 1480 1480 1478 1476 1477 1478
1497 1506 1508 1511 1514 1512 1514 1511 1510 1510 1510 1509 1508 1507 1505 1503 1500 1496 1494 1492 1490 1488 1486 1485 1484 1482 1481 1480 1479 1479 1479 1477 1476 1477 1477 1477 1476 1477 1477 1477 1475 1476 1476
1493 1498 1500 1509 1514 1510 1510 1509 1505 1504 1503 1502 1501 1500 1498 1496 1494 1491 1489 1488 1486 1485 1483 1481 1480 1479 1478 1477 1476 1474 1474 1473 1472 1471 1471 1471 1471 1472 1473 1473 1474 1474 1473
1506 1497 1502 1507 1511 1508 1506 1504 1501 1498 1496 1495 1493 1492 1491 1490 1489 1488 1486 1485 1482 1481 1479 1477 1475 1473 1472 1472 1471 1470 1469 1468 1465 1463 1463 1464 1464 1466 1469 1469 1471 1470 1473
1494 1495 1504 1508 1507 1502 1500 1497 1496 1494 1492 1491 1489 1488 1488 1485 1485 1483 1482 1480 1478 1476 1474 1472 1470 1468 1466 1465 1465 1465 1463 1461 1458 1457 1456 1455 1456 1455 1458 1461 1465 1466 1468
1501 1504 1505 1505 1503 1499 1496 1494 1492 1489 1487 1487 1486 1484 1484 1481 1480 1478 1476 1475 1473 1470 1468 1467 1464 1462 1461 1460 1458 1457 1456 1454 1452 1450 1449 1448 1448 1448 1450 1452 1456 1458 1461
1504 1500 1498 1499 1498 1497 1496 1492 1489 1486 1485 1483 1482 1478 1477 1476 1473 1472 1470 1469 1467 1464 1462 1460 1458 1456 1454 1452 1451 1449 1448 1446 1445 1444 1443 1443 1443 1443 1443 1446 1449 1452 1454
1491 1495 1497 1497 1499 1495 1493 1488 1486 1485 1482 1479 1477 1473 1471 1469 1467 1465 1464 1462 1459 1457 1454 1450 1448 1446 1445 1444 1442 1439 1438 1438 1438 1438 1437 1438 1439 1439 1439 1441 1443 1445 1446
1494 1497 1499 1498 1495 1492 1488 1485 1481 1480 1478 1474 1471 1468 1464 1461 1460 1458 1456 1453 1451 1449 1446 1442 1440 1438 1436 1435 1433 1432 1431 1430 1430 1432 1432 1432 1434 1435 1436 1437 1438 1440 1441
1498 1500 1496 1495 1490 1487 1484 1478 1477 1475 1472 1469 1466 1463 1459 1456 1453 1450 1447 1444 1441 1440 1436 1433 1432 1430 1428 1427 1425 1424 1423 1423 1422 1424 1426 1427 1429 1430 1431 1432 1433 1434 1436
1498 1497 1493 1490 1488 1483 1479 1477 1471 1467 1464 1462 1459 1455 1452 1448 1444 1440 1436 1433 1431 1430 1427 1425 1424 1423 1421 1420 1418 1417 1416 1416 1417 1417 1419 1422 1424 1426 1427 1428 1429 1431 1432
1497 1496 1494 1490 1486 1482 1479 1474 1469 1463 1457 1452 1450 1446 1442 1438 1434 1430 1427 1423 1421 1420 1419 1417 1416 1416 1414 1413 1412 1411 1411 1411 1412 1413 1414 1416 1419 1421 1422 1423 1425 1426 1428
1498 1496 1493 1489 1486 1481 1475 1470 1464 1459 1454 1449 1444 1440 1436 1432 1427 1424 1420 1417 1414 1412 1412 1411 1409 1409 1408 1408 1407 1407 1407 1407 1407 1408 1409 1411 1413 1415 1417 1419 1420 1422 1423
1498 1496 1493 1488 1482 1477 1472 1467 1461 1457 1452 1447 1442 1437 1432 1427 1422 1418 1415 1412 1409 1407 1405 1404 1403 1403 1402 1402 1402 1402 1402 1403 1403 1404 1405 1407 1409 1411 1413 1415 1416 1418 1419
1498 1495 1490 1485 1480 1475 1470 1465 1460 1455 1450 1444 1440 1435 1430 1425 1419 1414 1410 1407 1404 1401 1399 1397 1397 1396 1396 1396 1397 1397 1398 1399 1400 1401 1401 1402 1404 1406 1408 1410 1412 1414 1415
1498 1494 1489 1485 1480 1474 1469 1464 1459 1453 1447 1442 1436 1431 1426 1420 1415 1410 1405 1401 1398 1395 1393 1391 1390 1390 1390 1390 1391 1391 1392 1393 1395 1396 1397 1399 1400 1402 1404 1406 1408 1411 1413
1498 1494 1489 1485 1479 1474 1468 1462 1457 1451 1445 1439 1433 1427 1422 1416 1411 1406 1401 1396 1393 1389 1387 1385 1383 1383 1383 1384 1384 1385 1386 1387 1389 1391 1393 1395 1396 1398 1400 1402 1404 1406 1408
1498 1494 1489 1484 1478 1473 1467 1461 1455 1449 1443 1436 1430 1424 1418 1413 1407 1402 1396 1392 1388 1384 1381 1378 1376 1374 1375 1377 1378 1379 1380 1381 1383 1385 1388 1390 1392 1394 1396 1398 1400 1402 1404
1499 1494 1488 1483 1477 1471 1465 1460 1453 1447 1441 1434 1427 1421 1415 1409 1403 1398 1393 1387 1383 1379 1376 1372 1368 1366 1367 1370 1371 1373 1374 1375 1377 1380 1383 1386 1388 1390 1392 1394 1396 1398 1400
1499 1493 1487 1482 1477 1471 1465 1458 1452 1445 1439 1432 1425 1418 1412 1405 1400 1394 1389 1383 1378 1374 1371 1367 1364 1361 1360 1363 1366 1368 1369 1370 1372 1375 1378 1381 1384 1386 1389 1391 1393 1395 1398